This is the latest recevied weather packets stored in our database for station/object AJ7DN. If no packets are shown the sender has not sent any weather packets the latest 10 day(s).
| Time | Temp. | Humidity | Pressure | Rain* | Wind** | Luminosity | Snow |
|---|---|---|---|---|---|---|---|
| 1777675567 | 23.89° C | 52% | 1019.3 hPa | 0 mm | - | 408 W/m² | - |
| 1777675263 | 23.89° C | 52% | 1019.1 hPa | 0 mm | - | 480 W/m² | - |
| 1777674960 | 23.89° C | 54% | 1019.1 hPa | 0 mm | - | 471 W/m² | - |
| 1777674657 | 23.89° C | 52% | 1019.3 hPa | 0 mm | - | 427 W/m² | - |
| 1777674374 | 23.89° C | 53% | 1019.1 hPa | 0 mm | - | 478 W/m² | - |
| 1777674051 | 23.33° C | 53% | 1019.5 hPa | 0 mm | - | 501 W/m² | - |
| 1777673746 | 22.78° C | 54% | 1019.4 hPa | 0 mm | - | 505 W/m² | - |
| 1777673444 | 23.89° C | 52% | 1019.4 hPa | 0 mm | - | 510 W/m² | - |
| 1777673142 | 23.33° C | 53% | 1019.6 hPa | 0 mm | - | 525 W/m² | - |
| 1777672838 | 22.78° C | 55% | 1019.7 hPa | 0 mm | - | 479 W/m² | - |
| 1777672534 | 22.22° C | 55% | 1019.7 hPa | 0 mm | - | 496 W/m² | - |
| 1777672230 | 22.78° C | 54% | 1019.7 hPa | 0 mm | - | 521 W/m² | - |
| 1777671925 | 22.78° C | 55% | 1019.8 hPa | 0 mm | - | 518 W/m² | - |
| 1777671621 | 22.78° C | 54% | 1019.7 hPa | 0 mm | - | 497 W/m² | - |
| 1777671318 | 22.78° C | 55% | 1019.7 hPa | 0 mm | - | 404 W/m² | - |
| 1777671015 | 22.78° C | 55% | 1019.8 hPa | 0 mm | - | 509 W/m² | - |
| 1777670710 | 22.22° C | 55% | 1020 hPa | 0 mm | - | 511 W/m² | - |
| 1777670408 | 22.78° C | 56% | 1019.9 hPa | 0 mm | - | 498 W/m² | - |
| 1777670104 | 22.22° C | 56% | 1020.1 hPa | 0 mm | - | 517 W/m² | - |
| 1777669803 | 22.22° C | 57% | 1020 hPa | 0 mm | - | 532 W/m² | - |
| 1777669498 | 22.78° C | 54% | 1020.2 hPa | 0 mm | - | 509 W/m² | - |
| 1777669195 | 22.78° C | 57% | 1020 hPa | 0 mm | - | 501 W/m² | - |
| 1777668892 | 22.22° C | 56% | 1020.3 hPa | 0 mm | - | 515 W/m² | - |
| 1777668590 | 22.22° C | 56% | 1020.2 hPa | 0 mm | - | 615 W/m² | - |
| 1777668285 | 22.22° C | 57% | 1020.3 hPa | 0 mm | - | 622 W/m² | - |
* Rain latest hour (hover to see other rain measurements)
** Current wind speed in m/s (hover to see current wind gust speed)